User: anonymous   Login
Location: Unspecified
(0.0000°N, 0.0000°E)
Time: 10:57:08
(UTC+00:00)
Language:

Himawari 2 - Orbit

View from above orbital plane
View from above orbital plane
View from above satellite
View from above satellite

Ground track
Ground track

The orbit data is extracted from the following two-line orbital elements,

1 12677U 81076A   24110.72032477  .00000045  00000-0  00000-0 0  9994
2 12677   9.6738 310.1974 0007776 307.1050  54.8241  0.99554001124381
Epoch (UTC): 19 April 2024 17:17:16
Eccentricity: 0.0007776
inclination: 9.6738°
perigee height: 35956 km
apogee height: 36021 km
right ascension of ascending node: 310.1974°
argument of perigee: 307.1050°
revolutions per day: 0.99554001
mean anomaly at epoch: 54.8241°
orbit number at epoch: 12438

The dashed part of the orbit path shows where the satellite is in the earth's shadow,  

DLR